Weather History for KABE - May, 2013

Change the Weather History Date:

Saturday, May 11, 2013

  Actual Average Record
Temperature  
Mean Temperature 64 °F 58 °F  
Max Temperature 72 °F 70 °F 90 °F (1993)
Min Temperature 56 °F 47 °F 31 °F (1966)
Degree Days  
Heating Degree Days 1 7  
Month to date heating degree days 66 96  
Since 1 July heating degree days 5275 5666  
Cooling Degree Days 0 1  
Month to date cooling degree days 0 5  
Year to date cooling degree days 8 10  
Growing Degree Days 14 (Base 50)    
Moisture  
Dew Point 61 °F    
Average Humidity 83    
Maximum Humidity 93    
Minimum Humidity 73    
Precipitation  
Precipitation 0.31 in 0.13 in 1.83 in (1981)
Month to date precipitation 1.26 1.37  
Year to date precipitation 12.54 14.05  
Snow  
Snow 0.00 in 0.00 in 0.00 in ()
Month to date snowfall 0.0 0.0  
Since 1 July snowfall 21.4 32.9  
Snow Depth 0.00 in    
Sea Level Pressure  
Sea Level Pressure 29.78 in    
Wind  
Wind Speed 7 mph (SSW)    
Max Wind Speed 15 mph    
Max Gust Speed 21 mph    
Visibility 8 miles    
Events Rain    
T = Trace of Precipitation, MM = Missing Value Source: NWS Daily Summary

Daily Weather History Graph

Daily Weather History Graph

Search for Another Location

Airport or City:

Trip Planner

Search our weather history database for the weather conditions in past years. The results will help you decide how hot, cold, wet, or windy it might be!

Date:

Astronomy

May. 11, 2013 Rise Set
Actual Time 5:48 AM EDT 8:08 PM EDT
Civil Twilight 5:18 AM EDT 8:39 PM EDT
Nautical Twilight 4:40 AM EDT 9:17 PM EDT
Astronomical Twilight 3:58 AM EDT 9:59 PM EDT
Moon 6:54 AM EDT (5/11) 9:46 PM EDT (5/11)
Length of Visible Light 15h 21m
Length of Day
14h 19m
Waxing Crescent, 3% of the Moon is Illuminated
May 11
Waxing Crescent
May 18
First Quarter
May 25
Full
May 31
Last Quarter
Jun 8
New

Hourly Weather History & Observations

Time (EDT) Temp. Dew Point Humidity Pressure Visibility Wind Dir Wind Speed Gust Speed Precip Events Conditions
12:51 AM 63.0 °F 61.0 °F 93% 29.90 in 4.0 mi Calm Calm - 0.04 in Rain Light Rain
1:51 AM 62.1 °F 61.0 °F 96% 29.87 in 4.0 mi SSW 3.5 mph - 0.05 in Rain Light Rain
2:51 AM 62.1 °F 60.1 °F 93% 29.82 in 9.0 mi South 6.9 mph - 0.02 in   Overcast
3:00 AM 62.6 °F 60.8 °F 94% 29.83 in 10.0 mi South 3.5 mph - N/A   Overcast
3:29 AM 62.6 °F 60.8 °F 94% 29.84 in 9.0 mi South 3.5 mph - 0.00 in Rain Light Rain
3:51 AM 63.0 °F 61.0 °F 93% 29.83 in 8.0 mi South 3.5 mph - 0.01 in Rain Light Rain
4:15 AM 62.6 °F 60.8 °F 94% 29.83 in 5.0 mi South 4.6 mph - 0.02 in Rain Light Rain
4:35 AM 62.6 °F 60.8 °F 94% 29.82 in 10.0 mi South 6.9 mph - 0.02 in Rain Light Rain
4:51 AM 63.0 °F 60.1 °F 90% 29.81 in 5.0 mi South 9.2 mph - 0.03 in Rain Light Rain
4:58 AM 62.6 °F 60.8 °F 94% 29.81 in 8.0 mi South 6.9 mph - 0.00 in Rain Light Rain
5:51 AM 63.0 °F 60.1 °F 90% 29.80 in 10.0 mi SSW 10.4 mph - 0.00 in   Overcast
6:51 AM 63.0 °F 61.0 °F 93% 29.80 in 9.0 mi SW 4.6 mph - N/A   Overcast
7:20 AM 64.4 °F 60.8 °F 88% 29.81 in 10.0 mi SSW 6.9 mph - 0.00 in Rain Light Rain
7:51 AM 64.0 °F 61.0 °F 90% 29.80 in 10.0 mi SSW 9.2 mph - 0.01 in   Mostly Cloudy
8:51 AM 66.0 °F 62.1 °F 87% 29.79 in 10.0 mi SSW 10.4 mph - N/A   Mostly Cloudy
9:17 AM 66.2 °F 62.6 °F 88% 29.79 in 10.0 mi SW 8.1 mph - N/A   Mostly Cloudy
9:51 AM 66.9 °F 62.1 °F 84% 29.78 in 10.0 mi SSW 9.2 mph - N/A   Overcast
10:51 AM 66.9 °F 62.1 °F 84% 29.78 in 10.0 mi SSW 8.1 mph - N/A   Overcast
11:51 AM 69.1 °F 62.1 °F 78% 29.78 in 10.0 mi WSW 15.0 mph 20.7 mph N/A   Mostly Cloudy
12:51 PM 70.0 °F 61.0 °F 73% 29.75 in 10.0 mi WSW 8.1 mph 17.3 mph N/A   Mostly Cloudy
1:36 PM 66.2 °F 60.8 °F 83% 29.75 in 1.8 mi WSW 9.2 mph - 0.02 in Rain Heavy Rain
1:51 PM 64.9 °F 62.1 °F 90% 29.74 in 1.5 mi WSW 6.9 mph - 0.14 in Rain Heavy Rain
1:57 PM 64.4 °F 62.6 °F 94% 29.75 in 3.0 mi SW 8.1 mph - 0.01 in Rain Light Rain
2:51 PM 66.0 °F 64.0 °F 93% 29.73 in 6.0 mi South 4.6 mph - 0.05 in Rain Light Rain
3:17 PM 69.8 °F 64.4 °F 83% 29.73 in 10.0 mi SW 5.8 mph - 0.00 in   Mostly Cloudy
3:32 PM 69.8 °F 64.4 °F 83% 29.73 in 10.0 mi SSW 6.9 mph - 0.00 in   Mostly Cloudy
3:51 PM 69.1 °F 63.0 °F 81% 29.72 in 10.0 mi SW 10.4 mph - 0.00 in   Mostly Cloudy
4:19 PM 71.6 °F 62.6 °F 73% 29.71 in 10.0 mi SSW 11.5 mph - N/A   Mostly Cloudy
4:51 PM 70.0 °F 61.0 °F 73% 29.71 in 10.0 mi SW 6.9 mph - N/A   Scattered Clouds
5:51 PM 70.0 °F 60.1 °F 71% 29.71 in 10.0 mi WSW 8.1 mph - N/A   Partly Cloudy
6:51 PM 64.9 °F 60.1 °F 84% 29.72 in 10.0 mi SSW 9.2 mph - 0.00 in Rain Light Rain
7:51 PM 63.0 °F 59.0 °F 87% 29.73 in 10.0 mi WSW 5.8 mph - 0.00 in   Overcast
8:51 PM 59.0 °F 57.0 °F 93% 29.74 in 10.0 mi SW 3.5 mph - 0.00 in   Partly Cloudy
9:51 PM 59.0 °F 57.0 °F 93% 29.75 in 10.0 mi SW 6.9 mph - N/A   Clear
10:51 PM 57.9 °F 55.9 °F 93% 29.75 in 8.0 mi SSW 5.8 mph - N/A   Clear
11:51 PM 59.0 °F 55.0 °F 87% 29.74 in 10.0 mi WSW 6.9 mph - N/A   Partly Cloudy